Location: Arrington
(35.8681°N, 86.7092°W)
Time: 04:38:07
(UTC+00:00)

ASTRO E2 - Pass Details

Date: 23 November 2019
Orbit: 511 x 517 km, 31.4° (Epoch: 08 December)

Event Time Altitude Azimuth Distance (km) Brightness Sun altitude
Rises 00:29:08 0° 233° (SW) 2,610 7.3 -22.8°
Reaches altitude 10° 00:31:38 10° 220° (SW) 1,726 6.0 -23.3°
Enters shadow 00:34:15 24° 181° (S) 1,087 4.4 -23.8°
